Regional Weather Roundup
Issued by NWS

Home | Current Version | Previous Version | Text Only | Print | Product List | Glossary Off
Versions: 1 2 3 4 5 6 7 8 9 10 11 12 13 14 15 16 17 18 19 20 21 22 23 24 25 26 27 28 29 30 31 32 33 34 35 36 37 38 39 40 41 42 43 44 45 46 47 48 49 50

655
ASUS44 KJAN 191703
RWRMS

MISSISSIPPI HOURLY WEATHER ROUNDUP
NATIONAL WEATHER SERVICE JACKSON MS
1100 AM CST FRI DEC 19 2014

NOTE: "FAIR: INDICATES FEW OR NO CLOUDS BELOW 12,000 FEET WITH NO
SIGNIFICANT WEATHER AND/OR OBSTRUCTIONS TO VISIBILITY.

MSZ001>002-007>008-010>013-018>021-025>028-034>036-191800-
NORTHWEST MISSISSIPPI

CITY           SKY/WX    TMP DP  RH WIND       PRES   REMARKS
CLARKSDALE     CLOUDY    46  37  71 NE10      30.27R
CLEVELAND      FAIR      46  42  85 NE6       30.26S
GREENWOOD      CLOUDY    48  39  71 NE7       30.23F
GREENVILLE     CLOUDY    47  41  80 NE10      30.24S
GRENADA        CLOUDY    45  37  76 CALM      30.24F
OLIVE BRANCH   PTSUNNY   39  37  93 NE8       30.26F WCI  34
OXFORD         CLOUDY    43  34  70 E6        30.27R
TUNICA         CLOUDY    43  36  75 N7        30.29R
$$

MSZ003>006-009-014>017-022>024-029>033-037>039-191800-
NORTHEAST MISSISSIPPI

CITY           SKY/WX    TMP DP  RH WIND       PRES   REMARKS
COLUMBUS AFB   CLOUDY    47  37  69 N6        30.23F
CORINTH        CLOUDY    43  34  70 NE8       30.24F
GOLDN TRIANGLE PTSUNNY   46  37  71 NE7       30.22F
STARKVILLE     PTSUNNY   46  37  71 CALM      30.25R
TUPELO         CLOUDY    45  37  73 NE7       30.23F
$$

MSZ040-058-191800-
CENTRAL MISSISSIPPI

CITY           SKY/WX    TMP DP  RH WIND       PRES   REMARKS
JACKSON INTL   LGT RAIN  47  41  80 E7        30.21F
JACKSON HAWKNS LGT RAIN  48  42  80 NE5       30.21F
MERIDIAN KEY   CLOUDY    49  34  56 E5        30.22R
MERIDIAN NAS   CLOUDY    48  36  63 CALM      30.23R
RAYMOND        LGT RAIN  46  41  81 NE3       30.21F
VICKSBURG      LGT RAIN  48  44  86 NE9       30.20F FOG
$$

MSZ059>079-191800-
SOUTH MISSISSIPPI

CITY           SKY/WX    TMP DP  RH WIND       PRES   REMARKS
HATTIESBURG    CLOUDY    48  43  82 E3        30.18F
MCCOMB         CLOUDY    47  43  86 E10       30.12F
NATCHEZ        CLOUDY    48  45  87 E7        30.17R
PINE BELT      CLOUDY    46  41  81 NE6       30.19S
$$

MSZ080>082-191800-
COASTAL MISSISSIPPI

CITY           SKY/WX    TMP DP  RH WIND       PRES   REMARKS
BAY ST LOUIS   CLOUDY    48  45  87 NE7       30.13F
BILOXI         CLOUDY    49  49 100 NE13      30.14F
PASCAGOULA     CLOUDY    50  46  86 NE7       30.16F
GULFPORT       CLOUDY    49  46  90 NE10      30.13F
$$



USA.gov is the U.S. government's official web portal to all federal, state and local government web resources and services.